AirNav   Air Wisconsin pilot careers
 
 398 users online  

4AL7 Leon's Landing Airport
Flat Rock, Alabama, USA

GOING TO FLAT ROCK?


FAA INFORMATION EFFECTIVE 28 MARCH 2019

Location

FAA Identifier: 4AL7
Lat/Long: 34-44-41.0000N / 085-41-23.4000W
34-44.683333N / 085-41.390000W
34.7447222 / -85.6898333
(estimated)
Elevation: 1430 ft. / 436 m (estimated)
Variation: 03W (2000)
From city: 4 miles SE of FLAT ROCK, AL
Time zone: UTC -5 (UTC -6 during Standard Time)
Zip code: 35966

Airport Operations

Airport use: Private use. Permission required prior to landing
Activation date: 11/2000
Control tower: no
ARTCC: ATLANTA CENTER
FSS: ANNISTON FLIGHT SERVICE STATION
Attendance: UNATNDD
Segmented circle: no

Airport Communications

WX AWOS-3PT at 4A6 (16 nm W): 120.125 ((256) 259-1148)
WX AWOS-3PT at 4A9 (16 nm S): 119.025 (256-845-5397)
WX AWOS-3 at 9A5 (20 nm E): 119.775 (706-639-1976)

Nearby radio navigation aids

VOR radial/distance  VOR name  Freq  Var
GQOr243/29.4CHOO CHOO VORTAC115.8001E

 
NDB name  Hdg/Dist  Freq  Var  ID
FORT PAYNE001/13.442604WFTP ..-. - .--.
DAISY228/36.434102WCQN -.-. --.- -.

Airport Services

Runway Information

Runway 16/34

Dimensions: 2000 x 100 ft. / 610 x 30 m
Surface: turf
RUNWAY 16  RUNWAY 34
Traffic pattern: leftleft
Obstructions: 1 ft. pline, 1263 ft. from runway77 ft. trees, 527 ft. from runway

Airport Ownership and Management from official FAA records

Ownership: Privately-owned
Owner: LEON WILKS
23354 ALABAMA HWY 117
FLAT ROCK, AL 35966
Phone 256-632-3569
Manager: LEON WILKS
23354 ALABAMA HWY 117
FLAT ROCK, AL 35966
Phone 256-632-3569

Airport Operational Statistics

Aircraft based on the field: 4
Single engine airplanes: 4
    

Additional Remarks

FOR CD CTC CHATTANOOGA APCH AT 423-855-6478. IF UNA, CTC FSS.

Instrument Procedures

There are no published instrument procedures at 4AL7.

Some nearby airports with instrument procedures:

4A6 - Scottsboro Municipal Airport-Word Field (16 nm W)
4A9 - Isbell Field Airport (16 nm S)
KAPT - Marion County Airport-Brown Field (20 nm N)
9A5 - Barwick Lafayette Airport (20 nm E)
KCHA - Lovell Field Airport (30 nm NE)
 
Loc | Ops | Rwys | IFR | FBO | Links
Com | Nav | Svcs | Stats | Notes
Area around 4AL7 (Leon's Landing Airport)
 
Road maps at: MapQuest Bing Google
 
Aerial photo
WARNING: Photo may not be current or correct
Aerial photo of 4AL7 (Leon's Landing Airport)
Photo by Rand Baldwin
Photo taken 21-Jul-2007

Do you have a better or more recent aerial photo of Leon's Landing Airport that you would like to share? If so, please send us your photo.

 
Sectional chart

 
Airport distance calculator
Flying to Leon's Landing Airport? Find the distance to fly.

From to 4AL7

Sunrise and sunset
Times for 23-Apr-2019
 Local
(UTC-5)
 Zulu
(UTC)
Morning civil twilight05:3610:36
Sunrise06:0211:02
Sunset19:2000:20
Evening civil twilight19:4600:46

Current date and time
Zulu (UTC)  23-Apr-2019 09:53:57
Local (UTC-5)  23-Apr-2019 04:53:57
 
METAR
K4A6 
16nm W 
230935Z AUTO 00000KT 10SM CLR 10/10 A3013 RMK AO2
K4A9 
16nm S 
230935Z AUTO 36003KT 10SM CLR 09/08 A3011 RMK AO2 T00860084
K9A5 
20nm E 
230935Z AUTO 00000KT 10SM CLR 09/09 A3012 RMK AO2 T00900088
KDNN 
28nm E 
230935Z AUTO 00000KT 10SM CLR 08/08 A3013 RMK AO2
KCHA 
30nm NE 
230853Z AUTO 00000KT 10SM CLR 12/09 A3011 RMK AO2 SLP192 T01170094 55006
KBGF 
32nm NW 
230935Z AUTO 00000KT 10SM FEW018 BKN038 11/09 A3011 RMK A01
TAF
KCHA 
30nm NE 
230520Z 2306/2406 00000KT P6SM FEW150 SCT250 FM231600 23007KT P6SM SCT150 BKN250 FM240300 00000KT P6SM BKN150
NOTAMs
Click for the latest NOTAMs
NOTAMs are issued by the DoD/FAA and will open in a separate window not controlled by AirNav.

 

 
 

Would you like to see your business listed on this page?

 If your business provides an interesting product or service to pilots, flight crews, aircraft, or users of the Leon's Landing Airport, you should consider listing it here.  To start the listing process, click on the button below
 
Add a business
 

Other Pages about Leon's Landing Airport

Update a link
 
Copyright © AirNav, LLC. All rights reserved. Privacy Policy  Contact